This is the latest recevied weather packets stored in our database for station/object LU4EGV-13. If no packets are shown the sender has not sent any weather packets the latest 10 day(s).
| Time | Temp. | Humidity | Pressure | Rain* | Wind** | Luminosity | Snow |
|---|---|---|---|---|---|---|---|
| 1777713149 | 10.56° C | 81% | 1019.4 hPa | 0 mm | - | - | - |
| 1777712543 | 10.56° C | 80% | 1019.2 hPa | 0 mm | - | - | - |
| 1777711938 | 11.11° C | 79% | 1019.1 hPa | 0 mm | - | - | - |
| 1777711330 | 11.11° C | 80% | 1019 hPa | 0 mm | - | - | - |
| 1777710724 | 11.11° C | 80% | 1018.8 hPa | 0 mm | - | - | - |
| 1777710118 | 11.67° C | 80% | 1018.7 hPa | 0 mm | - | - | - |
| 1777709511 | 11.67° C | 80% | 1018.7 hPa | 0 mm | - | - | - |
| 1777708906 | 11.67° C | 80% | 1018.3 hPa | 0 mm | - | - | - |
| 1777708299 | 11.67° C | 80% | 1018 hPa | 0 mm | - | - | - |
| 1777707692 | 11.67° C | 80% | 1017.7 hPa | 0 mm | - | - | - |
| 1777707087 | 11.67° C | 80% | 1017.7 hPa | 0 mm | - | - | - |
| 1777706483 | 11.67° C | 80% | 1017.5 hPa | 0 mm | - | - | - |
| 1777705874 | 11.67° C | 80% | 1017.3 hPa | 0 mm | - | - | - |
| 1777705268 | 11.67° C | 79% | 1017.2 hPa | 0 mm | - | - | - |
| 1777704661 | 12.22° C | 77% | 1017.1 hPa | 0 mm | - | - | - |
| 1777704055 | 12.78° C | 76% | 1017.2 hPa | 0 mm | - | - | - |
| 1777703457 | 12.78° C | 75% | 1016.8 hPa | - | - | - | - |
| 1777703047 | 12.78° C | 75% | 1016.8 hPa | 0 mm | - | - | - |
| 1777702440 | 13.33° C | 74% | 1017.1 hPa | 0 mm | - | - | - |
| 1777701843 | 13.33° C | 74% | 1016.7 hPa | - | - | - | - |
| 1777701516 | 13.33° C | 74% | 1016.6 hPa | 0 mm | - | - | - |
| 1777700910 | 12.78° C | 74% | 1016.5 hPa | 0 mm | - | - | - |
| 1777700303 | 12.78° C | 73% | 1016.7 hPa | 0 mm | - | - | - |
| 1777699699 | 13.33° C | 73% | 1016.2 hPa | 0 mm | - | - | - |
| 1777699091 | 13.33° C | 72% | 1016.3 hPa | 0 mm | - | - | - |
* Rain latest hour (hover to see other rain measurements)
** Current wind speed in m/s (hover to see current wind gust speed)